Tracking 25963 objects as of 12-Aug-2022
HD Live streaming from Space Station
objects crossing your sky now

PSLV R/B

Track PSLV R/B now!
10-day predictions


NORAD ID: 51659
Int'l Code: 2022-013D
Perigee: 499.0 km
Apogee: 546.6 km
Inclination: 97.6 °
Period: 94.9 minutes
Semi major axis: 6893 km
RCS: Unknown
Launch date: February 14, 2022
Source: India (IND)
Launch site: SRIHARIKOTA (SRI)

Note: This is a ROCKET BODY
aabbcc
Your satellite tracking list
Your tracking list is empty




NASA's NSSDC Master Catalog

Two Line Element Set (TLE):
1 51659U 22013D   22224.11119365  .00003380  00000-0  17323-3 0  9996
2 51659  97.5701 232.8695 0034486  77.7025 282.8065 15.16756373 27133
Source of the keplerian elements: AFSPC